User: anonymous   Login
Location: George Washington National Forest Helicopter Landing Site
(38.6463°N, 79.0851°W)
Time: 22:36:03
(UTC-04:00)
Language:

Courier 1B Rocket - Orbit

View from above orbital plane
View from above orbital plane
View from above satellite
View from above satellite

Ground track
Ground track

The orbit data is extracted from the following two-line orbital elements,

1    59U 60013B   19236.52918372  .00000117  00000-0  37433-4 0  9995
2    59  28.2500 308.5712 0189276 305.6561  52.6496 13.52970207906731
Epoch (UTC): 24 August 2019 12:42:01
Eccentricity: 0.0189276
inclination: 28.2500°
perigee height: 920 km
apogee height: 1202 km
right ascension of ascending node: 308.5712°
argument of perigee: 305.6561°
revolutions per day: 13.52970207
mean anomaly at epoch: 52.6496°
orbit number at epoch: 90673

The dashed part of the orbit path shows where the satellite is in the earth's shadow,  

DLR